Flag for Greece

Past Weather in Santorini, Greece — Yesterday and Last 2 Weeks

Now
77 °F

Sunny.


Feels Like: 79 °F
Forecast: 77 / 73 °F
Wind: 20 mph from North

Location: Santorini Island

Current Time: Jul 14, 2020 at 2:13:19 pm

Latest Report: Jul 14, 2020 at 1:20 pm


Visibility: 10 mi

Pressure: 29.83 "Hg

Humidity: 69%

Dew Point: 66 °F

Location of SantoriniLocation

Past Weather in Santorini — Graph

°F

Santorini Temperature Yesterday

Maximum temperature yesterday: 82 °F (at 11:50 am)
Minimum temperature yesterday: 75 °F (at 12:50 am)
Average temperature yesterday: 79 °F

High & Low Weather Summary for the Past Weeks

 TemperatureHumidityPressure
High88 °F (Jun 30, 11:50 am)89% (Jul 7, 2:50 am)29.92 "Hg (Jul 7, 2:50 am)
Low72 °F (Jul 11, 6:20 am)33% (Jun 30, 11:50 am)29.56 "Hg (Jul 6, 4:50 pm)
Average79 °F65%29.76 "Hg
* Reported Jun 29 12:20 pm — Jul 14 12:50 pm, Santorini. Weather by CustomWeather, © 2020

Note: Actual official high and low records may vary slightly from our data, if they occured in-between our weather recording intervals... More about our weather records

Santorini Weather History for the Previous 24 Hours

Scroll right to see more
 ConditionsComfort  
Time TempWeatherWind HumidityBarometerVisibility
12:50 pm
Tue, Jul 14
77 °FSunny.20 mph69%29.83 "Hg10 mi
12:20 pm77 °FSunny.20 mph69%29.83 "Hg10 mi
11:50 am77 °FSunny.24 mph69%29.83 "Hg10 mi
11:20 am75 °FSunny.24 mph74%29.80 "Hg10 mi
10:50 am75 °FSunny.24 mph74%29.80 "Hg10 mi
10:20 am75 °FSunny.23 mph74%29.77 "Hg10 mi
9:50 am75 °FSunny.23 mph74%29.77 "Hg10 mi
9:20 am75 °FSunny.23 mph74%29.77 "Hg10 mi
8:50 am73 °FPassing clouds.22 mph74%29.77 "HgN/A
8:20 am73 °FPassing clouds.22 mph74%29.77 "HgN/A
7:50 am73 °FPassing clouds.22 mph74%29.77 "HgN/A
7:20 am72 °FPassing clouds.21 mph83%29.77 "HgN/A
6:50 am72 °FPassing clouds.21 mph83%29.77 "HgN/A
6:20 am72 °FPassing clouds.21 mph83%29.77 "HgN/A
5:50 am72 °FPassing clouds.21 mph83%29.77 "HgN/A
5:20 am73 °FClear.20 mph74%29.77 "Hg10 mi
4:50 am73 °FClear.20 mph74%29.77 "Hg10 mi
4:20 am73 °FClear.20 mph74%29.77 "Hg10 mi
3:50 am73 °FClear.16 mph78%29.77 "Hg10 mi
2:50 am73 °FClear.16 mph78%29.77 "Hg10 mi
2:20 am75 °FClear.16 mph74%29.77 "Hg10 mi
1:50 am75 °FClear.16 mph74%29.77 "Hg10 mi
1:20 am75 °FClear.16 mph74%29.77 "Hg10 mi
12:50 am75 °FClear.16 mph74%29.77 "Hg10 mi
12:20 am75 °FClear.16 mph74%29.77 "Hg10 mi
11:50 pm
Mon, Jul 13
75 °FClear.16 mph74%29.77 "Hg10 mi
11:20 pm75 °FClear.16 mph74%29.74 "Hg10 mi
10:50 pm75 °FClear.24 mph74%29.74 "Hg10 mi
10:20 pm75 °FClear.24 mph74%29.74 "Hg10 mi
9:50 pm75 °FClear.24 mph74%29.74 "Hg10 mi
9:20 pm77 °FClear.24 mph65%29.74 "Hg10 mi
8:50 pm77 °FClear.24 mph65%29.74 "Hg10 mi
8:20 pm79 °FSunny.28 mph61%29.74 "Hg10 mi
7:50 pm79 °FSunny.28 mph61%29.74 "Hg10 mi
7:20 pm79 °FSunny.28 mph61%29.74 "Hg10 mi
6:50 pm81 °FSunny.23 mph58%29.71 "Hg10 mi
6:20 pm81 °FSunny.23 mph58%29.71 "Hg10 mi
5:50 pm81 °FSunny.23 mph58%29.71 "Hg10 mi
5:20 pm82 °FSunny.28 mph51%29.74 "Hg10 mi
4:50 pm82 °FSunny.28 mph51%29.74 "Hg10 mi
4:20 pm82 °FSunny.28 mph51%29.74 "Hg10 mi
3:50 pm82 °FSunny.28 mph51%29.74 "Hg10 mi
3:20 pm82 °FSunny.28 mph51%29.74 "Hg10 mi
2:50 pm82 °FSunny.28 mph51%29.74 "Hg10 mi
2:20 pm82 °FSunny.25 mph51%29.74 "Hg10 mi
Weather by CustomWeather, © 2020

See weather overview